Regional Weather Roundup
Issued by NWS

Home | Current Version | Previous Version | Text Only | Print | Product List | Glossary On
Versions: 1 2 3 4 5 6 7 8 9 10 11 12 13 14 15 16 17 18 19 20 21 22 23 24 25 26 27 28 29 30 31 32 33 34 35 36 37 38 39 40 41 42 43 44 45 46 47 48 49 50
000
ASUS43 KLSX 221310
RWRMO

WEATHER SUMMARY FOR MISSOURI
NATIONAL WEATHER SERVICE SPRINGFIELD MO
800 AM CDT TUE MAY 22 2018

NOTE: "FAIR" INDICATES FEW OR NO CLOUDS BELOW 12,000 FEET WITH NO
       SIGNIFICANT WEATHER AND/OR OBSTRUCTIONS TO VISIBILITY.
       CURRENT SKY AND/OR WEATHER CONDITIONS ARE NOT AVAILABLE FOR
       CHILLICOTHE AND FARMINGTON.

MOZ001>031-035>038-043-044-053-054-221400-
...NORTHERN AND WESTERN MISSOURI...

CITY           SKY/WX    TMP DP  RH WIND       PRES   REMARKS
KANSAS CTY INT MOSUNNY   65  61  87 S7        30.05R
KANSAS C DTWN  SUNNY     66  61  84 CALM      30.04R
LEE`S SUMMIT   CLOUDY    67  63  87 S5        30.06R
ST JOSEPH      SUNNY     65  61  87 CALM      30.04R
CHILLICOTHE      N/A     63  60  90 CALM      30.06R
KIRKSVILLE     CLOUDY    64  62  93 CALM      30.08R

$$
MOZ066>068-077>081-088>096-101>105-221400-
...SOUTHWEST MISSOURI...

CITY           SKY/WX    TMP DP  RH WIND       PRES   REMARKS
SPRINGFIELD    FOG       67  66  97 S3        30.07R VSB 1/4
JOPLIN         SUNNY     69  64  84 CALM      30.06S
BRANSON        MOSUNNY   68  68 100 CALM      30.09R

$$
MOZ032>034-039>042-045>050-055>058-069>072-221400-
...CENTRAL MISSOURI...

CITY           SKY/WX    TMP DP  RH WIND       PRES   REMARKS
COLUMBIA       CLOUDY    63  61  93 CALM      30.08R
JEFFERSON CITY CLOUDY    61  61 100 CALM      30.07R FOG
ROLLA          SUNNY     68  62  81 NW3       30.08R
SEDALIA        CLOUDY    66  63  90 CALM      30.08R
WHITEMAN AFB   MOSUNNY   64  62  92 SE3       30.03R
WARRENSBURG    CLOUDY    61  61 100 CALM      30.07R
OSAGE BEACH    SUNNY     64  62  93 CALM      30.09R

$$
MOZ051-052-059>065-221400-
...EAST CENTRAL MISSOURI...

CITY           SKY/WX    TMP DP  RH WIND       PRES   REMARKS
ST LOUIS INTL  CLOUDY    72  64  76 W5        30.05R
SPIRIT OF STL  MOSUNNY   70  63  78 CALM      30.05R
ST CHARLES     MOSUNNY   69  65  86 CALM      30.04R

$$
MOZ072>076-082>087-097>100-106>115-221400-
...SOUTH CENTRAL AND SOUTHEAST MISSOURI...

CITY           SKY/WX    TMP DP  RH WIND       PRES   REMARKS
CAPE GIRARDEAU PTSUNNY   73  70  90 CALM      30.05R
POPLAR BLUFF   FOG       70  70 100 MISG      30.05R VSB 1/4
WEST PLAINS    FOG       68  68 100 CALM      30.09R VSB 1/4

$$




USA.gov is the U.S. government's official web portal to all federal, state and local government web resources and services.